Weather in Novo-Bulgary

Russia / Astrakhan Oblast     46°09′37″N   47°49′42″E
temp.,
°C
wind,
m/s
gust,
m/s
humid.,
%
clouds,
%
prec.,
mm/h
press.,
hPa
HPBL,
m
1 august, sun
sun101:00+24sse335910 0.0 101177
04:00+24se236055 0.0 101147
07:00+25sse235420 0.0 1012118
10:00+31se243410 0.0 10121123
13:00+34ssw653113 0.0 10111936
16:00+35ssw442923 0.0 10101967
19:00+34s652615 0.0 1010890
22:00+27s46444 0.0 1011114
2 august, mon
mon201:00+26ssw335120 0.0 101138
04:00+27se224262 0.0 101130
07:00+28ene233412 0.0 101274
10:00+34ese34208 0.0 1012862
13:00+38ssw561599 0.0 10112652
16:00+38s5613100 0.0 10103210
19:00+36se671752 0.0 1010743
22:00+28se463999 0.0 101195
3 august, tue
tue301:00+27sse454435 0.0 101071
04:00+26sse224399 0.0 101111
07:00+29ene113272 0.0 101214
10:00+35ese23183 0.0 1012670
13:00+38ssw45120 0.0 10103021
16:00+39ssw76121 0.0 10092695
19:00+37s67150 0.0 1009723
22:00+29s45285 0.0 101070
4 august, wed
wed401:00+27ssw33360 0.0 101035
04:00+26sw22480 0.0 101015
07:00+28s23390 0.0 101167
10:00+35s33190 0.0 1011621
13:00+38sw45130 0.0 10102026
16:00+39ssw54125 0.0 10093033
19:00+36s78175 0.0 1009457
22:00+29ssw34355 0.0 101150
5 august, thu
thu501:00+27w22405 0.0 101116
04:00+27nnw473424 0.0 101194
07:00+28nne474396 0.0 1011209
10:00+32n10113798 0.0 10131061
13:00+29nne6643100 0.0 1013435
16:00+31nnw36396 0.0 1013972
19:00+32n66330 0.0 10121361
22:00+28n474016 0.0 1013104